{"data":{"norad_id":52987,"intl_designator":"2022-076B","name":"STARLINK-4259","alt_names":[],"object_type":"PAYLOAD","status":"ACTIVE","operator":null,"country":"US","launch_date":"2022-07-07","launch_site_code":"AFETR","launch_vehicle":null,"mission":null,"orbit_class":"UNKNOWN","rcs_meters":null,"size_class":null,"mass_kg":null,"dimensions":null,"purposes":["comms"],"wikipedia_slug":null,"has_3d_model":false,"image_url":null,"decayed_at":null,"tle_current":{"epoch":"2026-09-19T17:14:43.504512Z","epoch_age_seconds":137235,"freshness":"FRESH","line1":"1 52987U 22076B   26262.71855908  .00000966  00000+0  42877-4 0  9991","line2":"2 52987  53.1598 301.4042 0001105  77.6336 282.4789 15.31707328232157","mean_motion":15.31707328,"eccentricity":0.0001105,"inclination_deg":53.1598,"raan_deg":301.4042,"arg_perigee_deg":77.6336,"mean_anomaly_deg":282.4789,"bstar":4.2877e-5,"rev_number":23215,"period_min":94.012738182839,"perigee_km":469.96135243188,"apogee_km":471.47494942023,"semimajor_km":6848.8551509261,"source":"CELESTRAK","updated_at":"2026-09-20T09:00:40.138765Z"}}}